[[{"header":{"parameterUnit":"m.s-1","parameterCategory":2,"la1":30.2991,"la2":30.254,"lo1":-89.0895,"lo2":-89.0444,"dy":0.0017,"dx":0.0017,"nx":28,"ny":28,"refTime":"2025-03-22T03:00:00:Z","depth":"0","parameterNumber":2,"parameterNumberName":"U-component_of_CURRENTS"},"data":[0,0,0,0,0,0,0,0,0,0,0,0,0,0,0,0,0,0,0,0,0,0,0,0,0,0,0,0,0,0,0,0,0,0,0,0,0,0,0,0,0,0,0,0,0,0,0,0,0,0,0,0,0,0,0,0,0,0,-0.3364,-0.3365,0,-0.3375,-0.3375,-0.3375,-0.3351,-0.335,-0.335,-0.3349,-0.3281,-0.328,-0.3279,0,0,0,0,0,0,0,0,0,0,0,0,0,-0.3247,-0.3249,-0.3364,-0.3365,-0.3365,-0.3375,-0.3375,-0.3375,-0.3351,-0.335,-0.335,-0.3349,-0.3282,-0.328,-0.3279,0,0,0,0,0,0,0,0,0,0,0,0,0,-0.3279,-0.325,-0.3364,-0.3357,-0.3356,-0.3375,-0.3375,-0.3375,-0.3351,-0.335,-0.3349,-0.3349,-0.3282,-0.3281,-0.3279,-0.3281,0,0,-0.3272,-0.3271,0,0,0,0,0,0,0,0,-0.3277,-0.3283,-0.3357,-0.3357,-0.3357,-0.3363,-0.3309,-0.334,-0.3351,-0.335,-0.3349,-0.3348,-0.3304,-0.33,-0.3301,-0.3278,-0.3275,-0.3272,-0.3271,-0.327,-0.327,0,0,0,0,0,0,0,-0.3275,-0.3282,-0.3365,-0.3358,-0.3358,-0.3327,-0.3331,-0.3314,-0.3327,-0.335,-0.3349,-0.3355,-0.3303,-0.3303,-0.3299,-0.3274,-0.3272,-0.327,-0.3269,-0.3268,-0.3219,-0.3219,0,0,0,0,0,0,-0.3285,-0.3281,-0.3365,-0.3366,-0.3318,-0.333,-0.3334,-0.3359,-0.3329,-0.3325,-0.3356,-0.3354,-0.3307,-0.3301,-0.3296,-0.3238,-0.327,-0.3268,-0.3267,-0.3219,-0.3219,-0.3219,0,0,0,0,0,0,-0.3283,-0.3294,-0.3365,-0.3324,-0.3332,-0.3334,-0.3361,-0.336,-0.3355,-0.3335,-0.3329,-0.3352,-0.3306,-0.3299,-0.328,-0.3237,-0.3267,-0.3265,-0.3219,-0.3219,-0.3219,-0.3159,0,0,0,0,0,0,-0.328,-0.3293,-0.3305,-0.3326,-0.3334,-0.3364,-0.3362,-0.3361,-0.3362,-0.336,-0.333,-0.3323,-0.3305,-0.3283,-0.3278,-0.3235,-0.3264,-0.3219,-0.3219,-0.3219,-0.3161,-0.3157,-0.3153,0,0,0,0,0,-0.3276,-0.3294,-0.3306,-0.3316,-0.3355,-0.3364,-0.3364,-0.336,-0.3363,-0.3354,-0.3343,-0.3324,-0.3278,-0.3282,-0.3275,-0.3231,-0.3219,-0.3219,-0.3219,-0.3163,-0.3158,-0.3154,0,0,0,0,0,0,-0.3246,-0.3295,-0.3308,-0.334,-0.3348,-0.3361,-0.3358,-0.3362,-0.3349,-0.3345,-0.3327,-0.3319,-0.3292,-0.3281,-0.3286,-0.3221,-0.3243,-0.3242,-0.3203,-0.3198,-0.3194,-0.3146,-0.3262,0,0,0,0,0,-0.325,-0.3276,-0.3309,-0.3329,-0.3339,-0.335,-0.3353,-0.3352,-0.3351,-0.3344,-0.3333,-0.3314,-0.3288,-0.326,-0.3253,-0.3211,-0.3196,-0.3181,-0.3176,-0.3173,-0.3132,-0.3105,-0.3093,-0.3218,-0.3218,-0.3218,0,0,-0.3244,-0.3273,-0.3288,-0.3324,-0.3333,-0.3311,-0.3348,-0.3352,-0.3315,-0.3338,-0.3297,-0.3313,-0.3284,-0.3243,-0.3226,-0.322,-0.3135,-0.3173,-0.3169,-0.313,-0.3103,-0.309,-0.3079,-0.3218,-0.3218,-0.3218,0,0,-0.3219,-0.3273,-0.3272,-0.3273,-0.3288,-0.3292,-0.3293,-0.3312,-0.3303,-0.3287,-0.3287,-0.3263,-0.3251,-0.3193,-0.3166,-0.3133,-0.3134,-0.3157,-0.3064,-0.3039,-0.3027,-0.3016,-0.2995,-0.2983,-0.313,-0.313,-0.313,0,-0.3199,-0.3201,-0.3267,-0.3245,-0.323,-0.3276,-0.3237,-0.3234,-0.3239,-0.3231,-0.3264,-0.3232,-0.3203,-0.311,-0.3091,-0.3111,-0.3123,-0.308,-0.3029,-0.3019,-0.3009,-0.2989,-0.2977,-0.3127,-0.3127,-0.3128,-0.3128,0,-0.3159,-0.3143,-0.314,-0.3126,-0.313,-0.3104,-0.3117,-0.3122,-0.3142,-0.314,-0.3115,-0.3103,-0.3074,-0.3064,-0.3055,-0.2968,-0.3011,-0.3047,-0.3033,-0.2992,-0.2975,-0.2963,-0.3123,-0.3124,-0.3125,-0.3125,0,0,-0.3103,-0.311,-0.3092,-0.3066,-0.3056,-0.3059,-0.3019,-0.2996,-0.2987,-0.2993,-0.2966,-0.29,-0.2937,-0.2907,-0.2908,-0.2857,-0.279,-0.2914,-0.2915,-0.2876,-0.2755,-0.2687,-0.2668,-0.2845,-0.2842,-0.284,-0.2776,0,-0.3018,-0.2961,-0.2986,-0.2904,-0.2864,-0.2905,-0.2876,-0.2876,-0.2899,-0.2899,-0.2873,-0.2864,-0.2862,-0.2873,-0.2812,-0.2827,-0.2756,-0.2805,-0.2814,-0.2812,-0.2742,-0.2649,-0.2537,-0.2461,-0.2764,-0.2762,-0.2761,0,-0.2915,-0.2894,-0.2812,-0.28,-0.2796,-0.2767,-0.2768,-0.2754,-0.2764,-0.2796,-0.2777,-0.281,-0.2722,-0.2761,-0.2676,-0.273,-0.2709,-0.2706,-0.2705,-0.264,-0.2719,-0.255,-0.2428,-0.2424,-0.2742,-0.2743,-0.2745,0,-0.2793,-0.2752,-0.269,-0.2673,-0.2678,-0.267,-0.2686,-0.271,-0.2724,-0.2733,-0.2767,-0.271,-0.2707,-0.2664,-0.2644,-0.2679,-0.2582,-0.2636,-0.2534,-0.2532,-0.2425,-0.2416,-0.2271,-0.2534,-0.2534,-0.2534,-0.2534,0,-0.2638,-0.258,-0.2638,-0.2587,-0.2561,-0.2603,-0.2592,-0.2622,-0.2665,-0.2666,-0.2705,-0.2692,-0.2691,-0.2657,-0.2625,-0.2529,-0.2559,-0.2468,-0.2485,-0.2405,-0.2396,-0.2382,-0.2428,-0.2532,-0.2532,-0.2533,-0.2533,0,-0.2463,-0.2487,-0.2437,-0.247,-0.2486,-0.2475,-0.255,-0.2554,-0.262,-0.2625,-0.2632,-0.2673,-0.2621,-0.2602,-0.2542,-0.2499,-0.238,-0.238,-0.2284,-0.2287,-0.2176,-0.2225,-0.2099,-0.2037,-0.2243,-0.224,-0.2238,0,-0.2356,-0.2307,-0.236,-0.2354,-0.2358,-0.2378,-0.2394,-0.2497,-0.2516,-0.2591,-0.2576,-0.257,-0.2503,-0.2405,-0.2328,-0.2228,-0.226,-0.2096,-0.2092,-0.2092,-0.2161,-0.2221,-0.2183,-0.1948,-0.1944,-0.194,-0.1937,0,-0.2155,-0.2199,-0.2182,-0.2194,-0.2208,-0.2239,-0.2277,-0.2306,-0.2413,-0.2428,-0.2418,-0.2378,-0.2295,-0.2145,-0.2057,-0.1992,-0.2049,-0.2018,-0.2034,-0.1891,-0.1929,-0.1905,-0.2097,-0.1906,-0.1909,-0.1912,-0.1913,-0.1915,-0.2027,-0.2004,-0.2018,-0.2015,-0.2045,-0.2067,-0.2047,-0.2113,-0.2132,-0.2114,-0.2197,-0.2066,-0.202,-0.1857,-0.1806,-0.1708,-0.1787,-0.1671,-0.1725,-0.1782,-0.1708,-0.1818,-0.1645,-0.1646,-0.1648,-0.1649,-0.165,0,-0.1851,-0.1847,-0.1836,-0.1841,-0.1815,-0.1893,-0.193,-0.1874,-0.1837,-0.1821,-0.1777,-0.1686,-0.1586,-0.1563,-0.151,-0.1451,-0.1441,-0.1442,-0.1498,-0.1468,-0.1555,-0.1526,-0.1298,-0.1298,-0.1298,-0.1298,-0.1298,-0.1298,-0.1756,-0.1683,-0.169,-0.1596,-0.1604,-0.1529,-0.152,-0.1459,-0.1405,-0.1257,-0.1176,-0.114,-0.1258,-0.1472,-0.1435,-0.1372,-0.1378,-0.1334,-0.1386,-0.1471,-0.1497,-0.1523,-0.1502,-0.1274,-0.1274,-0.1227,-0.1227,-0.1227]},{"header":{"parameterUnit":"m.s-1","parameterCategory":2,"la1":30.2991,"la2":30.254,"lo1":-89.0895,"lo2":-89.0444,"dy":0.0017,"dx":0.0017,"nx":28,"ny":28,"refTime":"2025-03-22T03:00:00:Z","depth":"0","parameterNumber":3,"parameterNumberName":"V-component_of_CURRENTS"},"data":[0,0,0,0,0,0,0,0,0,0,0,0,0,0,0,0,0,0,0,0,0,0,0,0,0,0,0,0,0,0,0,0,0,0,0,0,0,0,0,0,0,0,0,0,0,0,0,0,0,0,0,0,0,0,0,0,0,0,-0.0064,-0.0062,0,0.0121,0.0123,0.0125,0.0267,0.0268,0.0269,0.027,0.0481,0.0486,0.049,0,0,0,0,0,0,0,0,0,0,0,0,0,-0.0225,-0.0223,-0.0064,-0.0062,-0.006,0.012,0.0123,0.0126,0.0266,0.0268,0.0269,0.027,0.048,0.0485,0.0491,0,0,0,0,0,0,0,0,0,0,0,0,0,-0.0107,-0.0222,-0.0065,0.003,0.004,0.012,0.0123,0.0127,0.0266,0.0268,0.0269,0.0271,0.0478,0.0484,0.0491,0.0502,0,0,0.0512,0.0515,0,0,0,0,0,0,0,0,-0.0114,-0.0101,0.0014,0.0023,0.0035,0.017,0.0144,0.0252,0.0266,0.0183,0.027,0.0272,0.0377,0.0392,0.0426,0.0512,0.0521,0.0513,0.0517,0.052,0.0522,0,0,0,0,0,0,0,-0.0122,-0.0108,0.0012,0.0016,0.0029,0.0087,0.0105,0.0166,0.0271,0.019,0.02,0.0216,0.0383,0.0419,0.0432,0.0524,0.0513,0.0519,0.0523,0.0526,0.0649,0.0648,0,0,0,0,0,0,-0.0156,-0.0116,0.0006,0.0017,-0.004,0.0088,0.0109,0.0127,0.027,0.0293,0.0215,0.0222,0.0407,0.0424,0.044,0.0481,0.052,0.0527,0.0531,0.065,0.0649,0.0648,0,0,0,0,0,0,-0.016,-0.0146,-0.0002,-0.0047,-0.0025,0.0088,0.0109,0.013,0.0167,0.0288,0.0312,0.0229,0.0409,0.0431,0.0489,0.049,0.053,0.0536,0.0651,0.0649,0.0648,0.0549,0,0,0,0,0,0,-0.0165,-0.0149,-0.0154,-0.005,-0.0024,0.0036,0.0107,0.0132,0.0173,0.0185,0.0308,0.033,0.0412,0.0478,0.0496,0.05,0.0542,0.0652,0.065,0.0649,0.0554,0.0545,0.0537,0,0,0,0,0,-0.0171,-0.0189,-0.0155,-0.0141,-0.0032,0.0035,0.0054,0.0142,0.0171,0.0182,0.0262,0.0326,0.048,0.0482,0.0504,0.051,0.0653,0.0651,0.0649,0.0557,0.0547,0.0537,0,0,0,0,0,0,-0.0256,-0.0173,-0.0134,-0.0124,-0.0054,0.0058,0.007,0.0125,0.0196,0.0202,0.0316,0.0342,0.0404,0.0454,0.0453,0.0537,0.0576,0.0578,0.0499,0.049,0.0482,0.0432,0.0547,0,0,0,0,0,-0.0282,-0.0277,-0.0178,-0.0172,-0.0143,-0.0043,-0.0009,0.005,0.0128,0.0162,0.0254,0.0336,0.041,0.0445,0.0525,0.0555,0.0598,0.0571,0.0563,0.0555,0.0527,0.0578,0.0572,0.0641,0.0641,0.0641,0,0,-0.0314,-0.027,-0.0265,-0.0191,-0.0131,-0.0091,-0.0017,0.0023,0.0055,0.017,0.0234,0.0318,0.0414,0.0471,0.05,0.0511,0.0562,0.0553,0.0546,0.0522,0.0575,0.0569,0.0563,0.064,0.064,0.064,0,0,-0.0366,-0.0336,-0.0335,-0.0285,-0.021,-0.0151,-0.0148,-0.0039,0.0006,0.0071,0.0164,0.0227,0.0351,0.0413,0.0459,0.0438,0.0526,0.0475,0.0386,0.0436,0.043,0.0426,0.0485,0.0487,0.0459,0.0459,0.0458,0,-0.0408,-0.0384,-0.0327,-0.0303,-0.0273,-0.0185,-0.0168,-0.0113,0.0001,0.0028,0.0077,0.0242,0.0319,0.0375,0.0371,0.042,0.0467,0.042,0.0424,0.0421,0.0418,0.048,0.0483,0.0454,0.0454,0.0455,0.0455,0,-0.0434,-0.0417,-0.0418,-0.036,-0.0327,-0.0306,-0.0223,-0.0188,-0.0126,-0.0054,0.0023,0.0131,0.0224,0.026,0.0312,0.033,0.0379,0.0419,0.0446,0.0405,0.0473,0.0478,0.0446,0.0448,0.045,0.0451,0,0,-0.0525,-0.0451,-0.0451,-0.0433,-0.0358,-0.0335,-0.0307,-0.0247,-0.0227,-0.0125,-0.0084,0.0021,0.0081,0.0132,0.0211,0.0235,0.0263,0.0299,0.0305,0.0351,0.0384,0.0445,0.0457,0.0311,0.031,0.031,0.0445,0,-0.056,-0.054,-0.0493,-0.0485,-0.0468,-0.04,-0.0378,-0.0322,-0.0253,-0.0191,-0.0105,-0.0022,0.0034,0.0083,0.0112,0.0241,0.0268,0.0222,0.0422,0.0427,0.0481,0.0462,0.053,0.0657,0.0451,0.0452,0.0452,0,-0.0594,-0.0581,-0.0573,-0.0541,-0.0529,-0.0514,-0.0478,-0.0442,-0.0355,-0.0298,-0.0225,-0.0126,-0.0061,-0.0006,0.0144,0.0118,0.0222,0.0308,0.0317,0.0403,0.0496,0.0664,0.0675,0.0853,0.0461,0.046,0.0459,0,-0.0678,-0.0643,-0.0647,-0.063,-0.0573,-0.0573,-0.0549,-0.0478,-0.0451,-0.0363,-0.0318,-0.0213,-0.013,-0.0019,0.0166,0.0159,0.0342,0.037,0.0518,0.0525,0.0633,0.065,0.083,0.045,0.045,0.045,0.0449,0,-0.0728,-0.0735,-0.0687,-0.0687,-0.0711,-0.0646,-0.0652,-0.0608,-0.0535,-0.049,-0.0382,-0.0305,-0.0131,0.0014,0.0147,0.0358,0.0339,0.0491,0.0556,0.0604,0.0615,0.0815,0.0863,0.0455,0.0454,0.0453,0.0452,0,-0.0798,-0.0761,-0.0774,-0.0744,-0.0743,-0.0761,-0.0726,-0.0718,-0.0639,-0.0574,-0.0544,-0.0364,-0.0161,0.0023,0.0249,0.0363,0.0655,0.062,0.0668,0.0734,0.1005,0.1043,0.1232,0.1339,0.0785,0.0787,0.0789,0,-0.082,-0.083,-0.0835,-0.0856,-0.0844,-0.0854,-0.0856,-0.0786,-0.0758,-0.0589,-0.0556,-0.0342,-0.0151,0.0194,0.0429,0.068,0.0789,0.0873,0.085,0.102,0.1111,0.1124,0.1201,0.0972,0.0975,0.0978,0.098,0,-0.0872,-0.0875,-0.0887,-0.094,-0.0959,-0.0973,-0.0957,-0.0938,-0.0819,-0.0699,-0.0494,-0.0321,0.0019,0.0363,0.067,0.0814,0.1003,0.0933,0.1107,0.1253,0.1282,0.1418,0.089,0.1003,0.1001,0.0999,0.0998,0.0997,-0.0913,-0.0947,-0.0968,-0.1017,-0.1048,-0.1053,-0.1021,-0.0928,-0.0807,-0.0506,-0.0419,-0.0026,0.0326,0.0785,0.0938,0.1297,0.1214,0.1407,0.1437,0.1433,0.1534,0.1047,0.1229,0.1228,0.1227,0.1227,0.1226,0,-0.0948,-0.0981,-0.1039,-0.1084,-0.1123,-0.1118,-0.1055,-0.0925,-0.0693,-0.0348,-0.0063,0.047,0.0876,0.1202,0.1622,0.1807,0.1827,0.1893,0.1942,0.1995,0.1588,0.1595,0.1869,0.1869,0.1868,0.1868,0.1868,0.1868,-0.0965,-0.102,-0.1051,-0.1125,-0.1155,-0.1119,-0.105,-0.0763,-0.0471,0.0111,0.056,0.0852,0.1237,0.1834,0.225,0.2277,0.2446,0.24,0.2483,0.2221,0.2178,0.2137,0.216,0.2547,0.2548,0.2909,0.2913,0.2916]}],[{"header":{"parameterUnit":"m.s-1","parameterCategory":2,"la1":30.2991,"la2":30.254,"lo1":-89.0895,"lo2":-89.0444,"dy":0.0017,"dx":0.0017,"nx":28,"ny":28,"refTime":"2025-03-22T03:00:00:Z","depth":"2","parameterNumber":2,"parameterNumberName":"U-component_of_CURRENTS"},"data":[0,0,0,0,0,0,0,0,0,0,0,0,0,0,0,0,0,0,0,0,0,0,0,0,0,0,0,0,0,0,0,0,0,0,0,0,0,0,0,0,0,0,0,0,0,0,0,0,0,0,0,0,0,0,0,0,0,0,-0.2877,-0.2877,0,-0.2903,-0.2903,-0.2903,-0.2922,-0.2923,-0.2923,-0.2923,-0.2889,-0.2888,-0.2887,0,0,0,0,0,0,0,0,0,0,0,0,0,-0.2837,-0.2837,-0.2877,-0.2877,-0.2878,-0.2903,-0.2903,-0.2903,-0.2922,-0.2923,-0.2923,-0.2924,-0.289,-0.2888,-0.2887,0,0,0,0,0,0,0,0,0,0,0,0,0,-0.2856,-0.2837,-0.2877,-0.2892,-0.2894,-0.2903,-0.2903,-0.2903,-0.2922,-0.2923,-0.2923,-0.2924,-0.289,-0.2888,-0.2887,-0.2864,0,0,-0.2881,-0.288,0,0,0,0,0,0,0,0,-0.2854,-0.2857,-0.2889,-0.2891,-0.2893,-0.2912,-0.2877,-0.2888,-0.2922,-0.2909,-0.2923,-0.2924,-0.2892,-0.289,-0.2892,-0.2863,-0.2861,-0.2881,-0.288,-0.2879,-0.2878,0,0,0,0,0,0,0,-0.2853,-0.2856,-0.2885,-0.289,-0.2892,-0.2896,-0.2899,-0.2879,-0.2894,-0.291,-0.2912,-0.2918,-0.2893,-0.2894,-0.2891,-0.2861,-0.2881,-0.2879,-0.2878,-0.2877,-0.2863,-0.2864,0,0,0,0,0,0,-0.2854,-0.2854,-0.2884,-0.2886,-0.2877,-0.2896,-0.2899,-0.2903,-0.2896,-0.2897,-0.2918,-0.2919,-0.2897,-0.2893,-0.289,-0.2885,-0.2879,-0.2877,-0.2876,-0.2862,-0.2863,-0.2864,0,0,0,0,0,0,-0.2853,-0.2856,-0.2883,-0.2873,-0.2877,-0.2896,-0.2901,-0.2904,-0.2921,-0.2903,-0.2902,-0.2934,-0.2897,-0.2892,-0.2893,-0.2883,-0.2876,-0.2875,-0.2861,-0.2863,-0.2864,-0.2861,0,0,0,0,0,0,-0.2852,-0.2856,-0.2858,-0.2873,-0.2877,-0.2901,-0.2901,-0.2904,-0.2924,-0.2926,-0.2916,-0.2913,-0.2897,-0.2896,-0.2891,-0.288,-0.2873,-0.2861,-0.2862,-0.2863,-0.286,-0.2862,-0.2864,0,0,0,0,0,-0.285,-0.2872,-0.2858,-0.2862,-0.288,-0.2901,-0.2904,-0.2918,-0.2924,-0.2935,-0.2933,-0.2914,-0.2901,-0.2895,-0.2889,-0.2878,-0.286,-0.2862,-0.2863,-0.286,-0.2862,-0.2864,0,0,0,0,0,0,-0.285,-0.2876,-0.2862,-0.2885,-0.289,-0.2906,-0.2926,-0.2927,-0.2934,-0.294,-0.2921,-0.2917,-0.2912,-0.2904,-0.2898,-0.2882,-0.2878,-0.2879,-0.2878,-0.2879,-0.2881,-0.2821,-0.2872,0,0,0,0,0,-0.2849,-0.2875,-0.288,-0.2895,-0.2905,-0.2912,-0.2923,-0.2929,-0.2938,-0.2943,-0.2934,-0.2926,-0.2912,-0.2905,-0.2895,-0.2884,-0.2854,-0.2876,-0.2878,-0.2879,-0.2829,-0.2805,-0.2798,-0.287,-0.2869,-0.2869,0,0,-0.2867,-0.2868,-0.2892,-0.2897,-0.2907,-0.2896,-0.2921,-0.2948,-0.2926,-0.2936,-0.2919,-0.2931,-0.2913,-0.2902,-0.2899,-0.2894,-0.2851,-0.2881,-0.2882,-0.283,-0.2806,-0.2798,-0.2791,-0.2871,-0.287,-0.287,0,0,-0.2873,-0.2903,-0.2906,-0.2912,-0.2918,-0.2914,-0.2923,-0.2939,-0.2942,-0.2934,-0.2932,-0.2925,-0.2923,-0.2889,-0.2874,-0.2874,-0.2862,-0.2905,-0.2855,-0.2835,-0.2827,-0.282,-0.2798,-0.2789,-0.2904,-0.2904,-0.2904,0,-0.287,-0.286,-0.2911,-0.2892,-0.2889,-0.2917,-0.2895,-0.29,-0.2907,-0.2904,-0.2931,-0.2909,-0.2893,-0.2846,-0.2847,-0.2867,-0.2872,-0.2848,-0.2833,-0.2825,-0.2818,-0.2796,-0.2786,-0.2904,-0.2904,-0.2904,-0.2904,0,-0.2848,-0.2845,-0.2857,-0.2827,-0.2841,-0.2841,-0.2847,-0.2859,-0.2872,-0.2865,-0.2857,-0.285,-0.283,-0.284,-0.2834,-0.2786,-0.2813,-0.284,-0.2819,-0.2809,-0.2789,-0.2779,-0.2904,-0.2904,-0.2904,-0.2904,0,0,-0.2805,-0.2828,-0.2828,-0.2806,-0.2804,-0.2814,-0.2799,-0.2781,-0.2781,-0.2788,-0.2769,-0.2734,-0.2756,-0.2737,-0.2749,-0.2719,-0.2677,-0.2759,-0.2759,-0.272,-0.2647,-0.2579,-0.2561,-0.2729,-0.2726,-0.2724,-0.2661,0,-0.2741,-0.2702,-0.2732,-0.2697,-0.2675,-0.2717,-0.2705,-0.2712,-0.273,-0.2733,-0.272,-0.2715,-0.2712,-0.2728,-0.2689,-0.2695,-0.2646,-0.2691,-0.2673,-0.2671,-0.2597,-0.2544,-0.236,-0.2281,-0.2651,-0.2649,-0.2648,0,-0.266,-0.2651,-0.2604,-0.2626,-0.2628,-0.2616,-0.263,-0.2629,-0.2646,-0.2674,-0.2664,-0.2685,-0.2628,-0.265,-0.2582,-0.2631,-0.2608,-0.2603,-0.2602,-0.2513,-0.258,-0.2346,-0.2247,-0.263,-0.2631,-0.2632,-0.2634,0,-0.2557,-0.2556,-0.2514,-0.2516,-0.2544,-0.2547,-0.2567,-0.2599,-0.2617,-0.2635,-0.2662,-0.2624,-0.2621,-0.258,-0.2554,-0.2586,-0.2494,-0.2544,-0.2442,-0.244,-0.2253,-0.2237,-0.245,-0.2451,-0.2451,-0.2451,-0.2451,0,-0.2434,-0.2411,-0.2473,-0.2448,-0.2441,-0.2493,-0.2495,-0.253,-0.2576,-0.258,-0.2621,-0.2609,-0.2609,-0.2574,-0.254,-0.2444,-0.2476,-0.2382,-0.2396,-0.2253,-0.2238,-0.2518,-0.2526,-0.2449,-0.2449,-0.2449,-0.245,0,-0.2298,-0.2327,-0.2305,-0.2359,-0.2379,-0.2382,-0.2463,-0.2472,-0.2539,-0.2547,-0.2555,-0.2594,-0.2541,-0.2521,-0.2462,-0.2418,-0.2346,-0.23,-0.2129,-0.2122,-0.2312,-0.2322,-0.2172,-0.2169,-0.2166,-0.2164,-0.2161,0,-0.2207,-0.2176,-0.2246,-0.2247,-0.2263,-0.2297,-0.2317,-0.2421,-0.2441,-0.2514,-0.2499,-0.2492,-0.2424,-0.2327,-0.224,-0.2139,-0.2238,-0.1946,-0.1933,-0.2242,-0.2272,-0.2287,-0.23,-0.1705,-0.1699,-0.1695,-0.1691,0,-0.2045,-0.2087,-0.2088,-0.2111,-0.2132,-0.2169,-0.2214,-0.224,-0.2344,-0.236,-0.2346,-0.2304,-0.2209,-0.2016,-0.1924,-0.1853,-0.1952,-0.185,-0.2188,-0.1814,-0.1798,-0.1831,-0.1859,-0.165,-0.1654,-0.1657,-0.166,-0.1661,-0.1934,-0.1921,-0.1944,-0.1952,-0.1985,-0.2007,-0.199,-0.2051,-0.207,-0.2053,-0.2126,-0.1985,-0.1942,-0.1668,-0.1579,-0.1521,-0.1656,-0.1601,-0.1616,-0.1635,-0.1602,-0.1583,-0.1388,-0.139,-0.1393,-0.1395,-0.1396,0,-0.1775,-0.1781,-0.1779,-0.179,-0.1764,-0.1845,-0.1878,-0.1808,-0.1763,-0.1787,-0.1738,-0.1496,-0.1371,-0.1333,-0.1162,-0.1149,-0.115,-0.1122,-0.1121,-0.116,-0.1196,-0.1143,-0.0806,-0.0804,-0.0803,-0.0801,0,0,-0.1688,-0.1629,-0.1639,-0.155,-0.156,-0.1482,-0.147,-0.1388,-0.135,-0.1237,-0.1172,-0.1263,-0.1255,-0.1017,-0.0978,-0.0857,-0.1,-0.0814,-0.1281,-0.1315,-0.1349,-0.1458,-0.1417,0,0,0,0,0]},{"header":{"parameterUnit":"m.s-1","parameterCategory":2,"la1":30.2991,"la2":30.254,"lo1":-89.0895,"lo2":-89.0444,"dy":0.0017,"dx":0.0017,"nx":28,"ny":28,"refTime":"2025-03-22T03:00:00:Z","depth":"2","parameterNumber":3,"parameterNumberName":"V-component_of_CURRENTS"},"data":[0,0,0,0,0,0,0,0,0,0,0,0,0,0,0,0,0,0,0,0,0,0,0,0,0,0,0,0,0,0,0,0,0,0,0,0,0,0,0,0,0,0,0,0,0,0,0,0,0,0,0,0,0,0,0,0,0,0,-0.0396,-0.0394,0,-0.0243,-0.0242,-0.024,-0.0136,-0.0135,-0.0134,-0.0134,0.0031,0.0035,0.0038,0,0,0,0,0,0,0,0,0,0,0,0,0,-0.05,-0.0499,-0.0396,-0.0394,-0.0392,-0.0243,-0.0241,-0.024,-0.0136,-0.0135,-0.0134,-0.0133,0.003,0.0034,0.0039,0,0,0,0,0,0,0,0,0,0,0,0,0,-0.0413,-0.0499,-0.0396,-0.0321,-0.0313,-0.0244,-0.0241,-0.0239,-0.0137,-0.0135,-0.0134,-0.0133,0.0029,0.0034,0.0039,0.0045,0,0,0.0056,0.0058,0,0,0,0,0,0,0,0,-0.0419,-0.041,-0.0334,-0.0326,-0.0317,-0.0206,-0.0217,-0.0143,-0.0137,-0.0205,-0.0134,-0.0132,-0.0047,-0.0035,-0.0012,0.0053,0.006,0.0056,0.0059,0.0062,0.0063,0,0,0,0,0,0,0,-0.0425,-0.0415,-0.0337,-0.0332,-0.0322,-0.0261,-0.0249,-0.0202,-0.0137,-0.0199,-0.0191,-0.0172,-0.0042,-0.0017,-0.0007,0.0062,0.0056,0.0061,0.0064,0.0066,0.0207,0.0208,0,0,0,0,0,0,-0.0447,-0.0422,-0.0342,-0.0332,-0.0364,-0.0261,-0.0247,-0.0244,-0.0137,-0.0119,-0.0173,-0.0167,-0.0027,-0.0014,-0.0001,0.0067,0.0061,0.0066,0.007,0.0206,0.0207,0.0208,0,0,0,0,0,0,-0.045,-0.0442,-0.0348,-0.0371,-0.0354,-0.0261,-0.0259,-0.0242,-0.0207,-0.0117,-0.0099,-0.0154,-0.0026,-0.0009,0.0055,0.0072,0.0069,0.0074,0.0206,0.0207,0.0207,0.0168,0,0,0,0,0,0,-0.0454,-0.0445,-0.0453,-0.0373,-0.0354,-0.0303,-0.0259,-0.024,-0.0197,-0.0188,-0.0095,-0.0078,-0.0023,0.0047,0.006,0.0079,0.0078,0.0205,0.0206,0.0207,0.0169,0.0168,0.0167,0,0,0,0,0,-0.0459,-0.0468,-0.0454,-0.0444,-0.0368,-0.0302,-0.0287,-0.0216,-0.0197,-0.0181,-0.0116,-0.0081,0.0063,0.0051,0.0067,0.0088,0.0205,0.0206,0.0207,0.0169,0.0168,0.0167,0,0,0,0,0,0,-0.0511,-0.0456,-0.0439,-0.0431,-0.0372,-0.0284,-0.0262,-0.0223,-0.016,-0.0152,-0.0075,-0.0053,0.001,0.0049,0.0034,0.0132,0.014,0.0144,0.0106,0.0105,0.0104,0.0058,0.0082,0,0,0,0,0,-0.0532,-0.0529,-0.0458,-0.0453,-0.0427,-0.0351,-0.0318,-0.0272,-0.0204,-0.0175,-0.0107,-0.0038,0.0024,0.0063,0.0121,0.017,0.0197,0.0194,0.0193,0.0191,0.0165,0.0219,0.022,0.0212,0.0212,0.0212,0,0,-0.0547,-0.052,-0.0516,-0.0464,-0.0415,-0.0376,-0.0327,-0.0279,-0.0246,-0.0169,-0.0106,-0.0042,0.0035,0.0099,0.013,0.0136,0.0214,0.0193,0.0191,0.0165,0.0221,0.0221,0.0222,0.0213,0.0212,0.0212,0,0,-0.0571,-0.0557,-0.0556,-0.051,-0.0446,-0.0399,-0.039,-0.0303,-0.0263,-0.0201,-0.0134,-0.0069,0.0029,0.0091,0.0132,0.0153,0.0202,0.0182,0.0145,0.0199,0.02,0.0201,0.0254,0.026,0.0185,0.0185,0.0185,0,-0.0597,-0.0583,-0.0542,-0.0518,-0.0484,-0.0415,-0.0391,-0.0343,-0.0245,-0.0217,-0.0187,-0.0044,0.0021,0.0097,0.0109,0.0149,0.0186,0.0145,0.0196,0.0197,0.0199,0.0253,0.026,0.0183,0.0183,0.0184,0.0184,0,-0.0609,-0.0589,-0.058,-0.0538,-0.0501,-0.0467,-0.0397,-0.0358,-0.031,-0.0253,-0.0173,-0.0081,0.0001,0.0042,0.0083,0.0134,0.0161,0.0185,0.0193,0.0197,0.0255,0.0263,0.0181,0.0181,0.0182,0.0182,0,0,-0.0685,-0.0608,-0.0602,-0.0584,-0.0508,-0.0481,-0.0438,-0.0377,-0.0353,-0.0262,-0.0218,-0.011,-0.0065,-0.0019,0.0052,0.0098,0.0153,0.0137,0.0141,0.0179,0.0275,0.032,0.0334,0.019,0.0191,0.0192,0.0318,0,-0.0705,-0.0676,-0.0629,-0.0597,-0.0572,-0.0505,-0.0473,-0.0414,-0.0352,-0.0293,-0.0204,-0.0133,-0.0085,-0.0041,0.0011,0.0117,0.0168,0.0116,0.0275,0.0279,0.031,0.0342,0.0298,0.0409,0.0326,0.0327,0.0328,0,-0.0727,-0.0706,-0.068,-0.0627,-0.0613,-0.0591,-0.0541,-0.0499,-0.0408,-0.0359,-0.0282,-0.0201,-0.0113,-0.0076,0.0082,0.0048,0.0144,0.0222,0.023,0.028,0.0338,0.0391,0.0427,0.0342,0.0341,0.034,0.0339,0,-0.0795,-0.0741,-0.073,-0.0706,-0.0637,-0.0629,-0.06,-0.0524,-0.0494,-0.0401,-0.0364,-0.0246,-0.0172,-0.0058,0.0107,0.0097,0.0281,0.0297,0.0427,0.0432,0.0427,0.043,0.0395,0.0395,0.0394,0.0394,0.0393,0,-0.0826,-0.0815,-0.0764,-0.0753,-0.0763,-0.0693,-0.0688,-0.0639,-0.0563,-0.0517,-0.0409,-0.0336,-0.0166,-0.0029,0.0097,0.0293,0.0282,0.0417,0.0467,0.0416,0.0417,0.0375,0.0371,0.0399,0.0398,0.0397,0.0396,0,-0.088,-0.0838,-0.0834,-0.0792,-0.0788,-0.0798,-0.0758,-0.0745,-0.0664,-0.0599,-0.0569,-0.0394,-0.0204,-0.0027,0.0191,0.0297,0.0467,0.054,0.047,0.0509,0.0581,0.0574,0.0685,0.0688,0.069,0.0692,0.0694,0,-0.0896,-0.0895,-0.0888,-0.0906,-0.089,-0.0891,-0.0889,-0.0813,-0.0783,-0.0618,-0.0587,-0.0383,-0.0207,0.012,0.0327,0.0561,0.0557,0.0655,0.0622,0.0573,0.0611,0.06,0.059,0.0611,0.0612,0.0613,0.0613,0,-0.0936,-0.0938,-0.0941,-0.0986,-0.1001,-0.1008,-0.0988,-0.0971,-0.0851,-0.0744,-0.0554,-0.0392,-0.0078,0.0188,0.0475,0.0597,0.0607,0.0677,0.0659,0.0541,0.0513,0.0546,0.0537,0.0619,0.0618,0.0618,0.0617,0.0617,-0.0975,-0.1004,-0.102,-0.1062,-0.1089,-0.1096,-0.1071,-0.1007,-0.0905,-0.0711,-0.0548,-0.027,-0.0051,0.0373,0.0556,0.0709,0.0712,0.0741,0.0735,0.0729,0.0695,0.0671,0.0801,0.0801,0.0802,0.0802,0.0802,0,-0.1011,-0.1039,-0.1091,-0.1133,-0.1174,-0.1163,-0.111,-0.1073,-0.0915,-0.0678,-0.045,-0.0173,0.0144,0.0364,0.0617,0.0776,0.0734,0.0789,0.0698,0.0693,0.0688,0.0647,0.0743,0.0743,0.0743,0.0744,0,0,-0.1029,-0.1079,-0.1107,-0.1185,-0.1215,-0.12,-0.1146,-0.1049,-0.0871,-0.0654,-0.0396,-0.012,0.0177,0.0339,0.0518,0.0647,0.063,0.065,0.0682,0.0549,0.0542,0.0644,0.0575,0,0,0,0,0]}],[{"header":{"parameterUnit":"m.s-1","parameterCategory":2,"la1":30.2991,"la2":30.254,"lo1":-89.0895,"lo2":-89.0444,"dy":0.0017,"dx":0.0017,"nx":28,"ny":28,"refTime":"2025-03-22T03:00:00:Z","depth":"4","parameterNumber":2,"parameterNumberName":"U-component_of_CURRENTS"},"data":[0,0,0,0,0,0,0,0,0,0,0,0,0,0,0,0,0,0,0,0,0,0,0,0,0,0,0,0,0,0,0,0,0,0,0,0,0,0,0,0,0,0,0,0,0,0,0,0,0,0,0,0,0,0,0,0,0,0,-0.147,-0.1471,0,-0.1572,-0.1573,-0.1574,-0.1607,-0.1607,-0.1606,-0.1606,-0.1712,-0.1715,-0.1718,0,0,0,0,0,0,0,0,0,0,0,0,0,-0.1342,-0.1344,-0.1469,-0.1471,-0.1472,-0.1572,-0.1573,-0.1574,-0.1607,-0.1607,-0.1606,-0.1606,-0.1711,-0.1715,-0.1719,0,0,0,0,0,0,0,0,0,0,0,0,0,-0.1414,-0.1345,-0.1469,-0.1503,-0.1507,-0.1571,-0.1573,-0.1574,-0.1607,-0.1607,-0.1606,-0.1606,-0.171,-0.1715,-0.1719,-0.1754,0,0,-0.1733,-0.1735,0,0,0,0,0,0,0,0,-0.141,-0.1418,-0.1496,-0.1501,-0.1505,-0.1579,-0.1567,-0.1635,-0.1607,-0.1566,-0.1606,-0.1606,-0.167,-0.1678,-0.1694,-0.1759,-0.1763,-0.1733,-0.1736,-0.1738,-0.1739,0,0,0,0,0,0,0,-0.1405,-0.1414,-0.1507,-0.1498,-0.1504,-0.1527,-0.1536,-0.158,-0.1617,-0.157,-0.1573,-0.1589,-0.1672,-0.169,-0.1697,-0.1765,-0.1733,-0.1737,-0.174,-0.1742,-0.1899,-0.19,0,0,0,0,0,0,-0.1396,-0.1409,-0.1504,-0.1511,-0.1459,-0.1529,-0.1539,-0.1553,-0.1616,-0.1626,-0.1589,-0.159,-0.1682,-0.1691,-0.1701,-0.1786,-0.1738,-0.1742,-0.1745,-0.1897,-0.1899,-0.1901,0,0,0,0,0,0,-0.1393,-0.1403,-0.15,-0.1464,-0.1479,-0.1532,-0.1547,-0.1556,-0.1604,-0.1631,-0.1641,-0.1632,-0.1682,-0.1694,-0.1772,-0.1789,-0.1744,-0.1749,-0.1896,-0.1898,-0.19,-0.1931,0,0,0,0,0,0,-0.1388,-0.1401,-0.1425,-0.1464,-0.148,-0.1555,-0.1548,-0.1558,-0.1613,-0.1616,-0.1671,-0.1679,-0.1683,-0.1765,-0.1776,-0.1794,-0.1752,-0.1894,-0.1897,-0.1899,-0.1928,-0.1934,-0.1939,0,0,0,0,0,-0.1383,-0.1422,-0.1425,-0.1438,-0.1505,-0.1557,-0.1568,-0.1602,-0.1616,-0.1643,-0.1687,-0.1679,-0.1789,-0.1771,-0.1784,-0.1803,-0.1892,-0.1896,-0.1899,-0.1926,-0.1933,-0.1939,0,0,0,0,0,0,-0.1389,-0.143,-0.1435,-0.1486,-0.1522,-0.1563,-0.1607,-0.1625,-0.1682,-0.1698,-0.1716,-0.1727,-0.1783,-0.1804,-0.1784,-0.1855,-0.1832,-0.1838,-0.1849,-0.1856,-0.1861,-0.1878,-0.1756,0,0,0,0,0,-0.1398,-0.1431,-0.1468,-0.1511,-0.1536,-0.1576,-0.1609,-0.1631,-0.1679,-0.1705,-0.1741,-0.1779,-0.1803,-0.1841,-0.1861,-0.1931,-0.1918,-0.1946,-0.1951,-0.1956,-0.1979,-0.1974,-0.198,-0.1911,-0.1911,-0.1911,0,0,-0.1404,-0.144,-0.1454,-0.1514,-0.1551,-0.1599,-0.1596,-0.1659,-0.1704,-0.1709,-0.1795,-0.1799,-0.1822,-0.1873,-0.1902,-0.1902,-0.1965,-0.196,-0.1963,-0.1984,-0.1977,-0.1984,-0.199,-0.1913,-0.1913,-0.1913,0,0,-0.1433,-0.1476,-0.1506,-0.1542,-0.1606,-0.1644,-0.1668,-0.1725,-0.1759,-0.1833,-0.1828,-0.1864,-0.1926,-0.1938,-0.1951,-0.2013,-0.1978,-0.2007,-0.2071,-0.2065,-0.2071,-0.2075,-0.2044,-0.2046,-0.2028,-0.2028,-0.2028,0,-0.1448,-0.1494,-0.1526,-0.1569,-0.1619,-0.1668,-0.1722,-0.1765,-0.1838,-0.1867,-0.1868,-0.1934,-0.1956,-0.2002,-0.202,-0.2025,-0.2004,-0.204,-0.2071,-0.2075,-0.2079,-0.2047,-0.2048,-0.2029,-0.2029,-0.2029,-0.2029,0,-0.1473,-0.1534,-0.1569,-0.1639,-0.1692,-0.1758,-0.1815,-0.1872,-0.1922,-0.1947,-0.2002,-0.2025,-0.206,-0.2062,-0.2071,-0.2107,-0.2074,-0.2058,-0.2049,-0.2088,-0.2051,-0.2052,-0.2032,-0.2032,-0.2031,-0.2031,0,0,-0.1462,-0.1567,-0.1584,-0.1634,-0.1744,-0.1789,-0.1879,-0.1962,-0.2006,-0.206,-0.2104,-0.2152,-0.2144,-0.2161,-0.2155,-0.2173,-0.2177,-0.2143,-0.2142,-0.2105,-0.2142,-0.1992,-0.1978,-0.2158,-0.2159,-0.216,-0.2095,0,-0.1489,-0.1582,-0.1634,-0.1744,-0.1807,-0.1883,-0.1954,-0.2025,-0.2082,-0.213,-0.2154,-0.2185,-0.2186,-0.2192,-0.2212,-0.2179,-0.2186,-0.2196,-0.2119,-0.2117,-0.1972,-0.1977,-0.2163,-0.2095,-0.2095,-0.2096,-0.2096,0,-0.1495,-0.1572,-0.1675,-0.1805,-0.1838,-0.1906,-0.2031,-0.2093,-0.2163,-0.2193,-0.2231,-0.2232,-0.2272,-0.2253,-0.2245,-0.2246,-0.2211,-0.2185,-0.2181,-0.2038,-0.1969,-0.2056,-0.2097,-0.2097,-0.2097,-0.2097,-0.2097,0,-0.1466,-0.1605,-0.17,-0.1742,-0.1883,-0.1944,-0.2024,-0.2111,-0.2156,-0.2226,-0.2244,-0.228,-0.2286,-0.2271,-0.2231,-0.2237,-0.219,-0.2183,-0.2014,-0.2002,-0.2143,-0.2139,-0.2176,-0.2176,-0.2176,-0.2176,-0.2177,0,-0.1474,-0.1553,-0.1694,-0.174,-0.1841,-0.1938,-0.2029,-0.2096,-0.2172,-0.2196,-0.2264,-0.226,-0.2292,-0.2265,-0.2232,-0.211,-0.2186,-0.2024,-0.1979,-0.2155,-0.2153,-0.2142,-0.2139,-0.2174,-0.2174,-0.2175,-0.2175,0,-0.142,-0.1519,-0.1625,-0.178,-0.1827,-0.1892,-0.2023,-0.206,-0.2152,-0.2181,-0.22,-0.2248,-0.2197,-0.2194,-0.2148,-0.2081,-0.2,-0.1939,-0.2112,-0.2078,-0.1817,-0.1817,-0.1745,-0.1739,-0.1734,-0.173,-0.1727,0,-0.1395,-0.1447,-0.1618,-0.1662,-0.1738,-0.1845,-0.1897,-0.2028,-0.2056,-0.2139,-0.2122,-0.2124,-0.2126,-0.1929,-0.1959,-0.1866,-0.1847,-0.1805,-0.184,-0.1811,-0.1775,-0.1783,-0.1789,-0.1719,-0.1718,-0.1716,-0.1715,0,-0.1337,-0.1408,-0.1483,-0.1578,-0.1654,-0.173,-0.1817,-0.1825,-0.194,-0.2045,-0.197,-0.1926,-0.1859,-0.1807,-0.1742,-0.1686,-0.1838,-0.1754,-0.1765,-0.1797,-0.1779,-0.175,-0.1761,-0.1698,-0.1701,-0.1702,-0.1703,0,-0.1269,-0.1301,-0.1393,-0.1459,-0.1546,-0.1571,-0.1648,-0.1665,-0.1712,-0.1811,-0.1774,-0.1772,-0.1822,-0.171,-0.1651,-0.158,-0.1564,-0.153,-0.1552,-0.1571,-0.1546,-0.1499,-0.1289,0,0,0,0,0,-0.1188,-0.1204,-0.1259,-0.1319,-0.1395,-0.1437,-0.1561,-0.1635,-0.1751,-0.1644,-0.1705,-0.1628,-0.1536,-0.1545,-0.143,-0.1578,-0.1577,-0.1442,-0.1554,-0.1604,-0.1624,-0.1611,0,0,0,0,0,0,-0.1126,-0.1178,-0.121,-0.1178,-0.1173,-0.124,-0.1306,-0.1393,-0.1352,-0.1467,-0.1416,-0.151,-0.1436,-0.1537,-0.1376,-0.1381,-0.1418,-0.1461,-0.1457,-0.1593,-0.1611,-0.1627,-0.162,0,0,0,0,0]},{"header":{"parameterUnit":"m.s-1","parameterCategory":2,"la1":30.2991,"la2":30.254,"lo1":-89.0895,"lo2":-89.0444,"dy":0.0017,"dx":0.0017,"nx":28,"ny":28,"refTime":"2025-03-22T03:00:00:Z","depth":"4","parameterNumber":3,"parameterNumberName":"V-component_of_CURRENTS"},"data":[0,0,0,0,0,0,0,0,0,0,0,0,0,0,0,0,0,0,0,0,0,0,0,0,0,0,0,0,0,0,0,0,0,0,0,0,0,0,0,0,0,0,0,0,0,0,0,0,0,0,0,0,0,0,0,0,0,0,-0.0517,-0.0516,0,-0.0459,-0.0458,-0.0458,-0.0447,-0.0447,-0.0448,-0.0448,-0.0363,-0.0361,-0.0358,0,0,0,0,0,0,0,0,0,0,0,0,0,-0.0538,-0.0539,-0.0517,-0.0516,-0.0515,-0.0459,-0.0458,-0.0457,-0.0447,-0.0447,-0.0448,-0.0448,-0.0364,-0.0361,-0.0358,0,0,0,0,0,0,0,0,0,0,0,0,0,-0.051,-0.0539,-0.0517,-0.0503,-0.0501,-0.0459,-0.0458,-0.0457,-0.0447,-0.0447,-0.0448,-0.0449,-0.0365,-0.0361,-0.0357,-0.032,0,0,-0.0345,-0.0344,0,0,0,0,0,0,0,0,-0.0512,-0.051,-0.0506,-0.0504,-0.0501,-0.046,-0.0434,-0.041,-0.0447,-0.0468,-0.0448,-0.0449,-0.0392,-0.0386,-0.0375,-0.0317,-0.0313,-0.0345,-0.0342,-0.0341,-0.034,0,0,0,0,0,0,0,-0.0514,-0.0512,-0.0495,-0.0505,-0.0502,-0.0472,-0.0469,-0.043,-0.0427,-0.0466,-0.0465,-0.0457,-0.0391,-0.0379,-0.0373,-0.0312,-0.0345,-0.0341,-0.0339,-0.0337,-0.0232,-0.0232,0,0,0,0,0,0,-0.0524,-0.0514,-0.0496,-0.0493,-0.0508,-0.0471,-0.0468,-0.0473,-0.0428,-0.0422,-0.0457,-0.0457,-0.0386,-0.0378,-0.037,-0.0327,-0.0341,-0.0337,-0.0335,-0.0233,-0.0232,-0.0232,0,0,0,0,0,0,-0.0524,-0.0523,-0.0499,-0.0501,-0.0495,-0.0471,-0.0476,-0.0472,-0.0466,-0.0421,-0.0415,-0.0456,-0.0386,-0.0375,-0.0338,-0.0324,-0.0335,-0.0332,-0.0233,-0.0232,-0.0232,-0.0239,0,0,0,0,0,0,-0.0526,-0.0524,-0.0533,-0.0502,-0.0496,-0.0479,-0.0475,-0.047,-0.0459,-0.0459,-0.0418,-0.0411,-0.0385,-0.0344,-0.0334,-0.0318,-0.0329,-0.0234,-0.0233,-0.0232,-0.0239,-0.0238,-0.0238,0,0,0,0,0,-0.0527,-0.0538,-0.0534,-0.0531,-0.0508,-0.0479,-0.0473,-0.0457,-0.0459,-0.0455,-0.0427,-0.0412,-0.0333,-0.0341,-0.0329,-0.0312,-0.0234,-0.0233,-0.0232,-0.0239,-0.0239,-0.0238,0,0,0,0,0,0,-0.0548,-0.0536,-0.0532,-0.0538,-0.0512,-0.0477,-0.0474,-0.046,-0.0435,-0.0438,-0.0401,-0.0391,-0.0361,-0.0333,-0.0343,-0.0281,-0.0282,-0.0279,-0.0292,-0.0291,-0.029,-0.0267,-0.0325,0,0,0,0,0,-0.0557,-0.0566,-0.0539,-0.0542,-0.0534,-0.0504,-0.0492,-0.0479,-0.045,-0.0441,-0.041,-0.0377,-0.0345,-0.0317,-0.0292,-0.0245,-0.0209,-0.0228,-0.0228,-0.0227,-0.0201,-0.014,-0.0131,-0.0228,-0.0228,-0.0228,0,0,-0.0567,-0.056,-0.0565,-0.0547,-0.053,-0.0507,-0.0499,-0.0483,-0.0457,-0.0433,-0.0397,-0.038,-0.0338,-0.0298,-0.0279,-0.0269,-0.0186,-0.0226,-0.0226,-0.0199,-0.0138,-0.0128,-0.012,-0.0228,-0.0228,-0.0228,0,0,-0.0579,-0.0584,-0.0591,-0.0568,-0.0541,-0.0517,-0.0515,-0.048,-0.0464,-0.0428,-0.0408,-0.0366,-0.0328,-0.0274,-0.0247,-0.022,-0.0198,-0.0234,-0.019,-0.0133,-0.0124,-0.0115,-0.0077,-0.0065,-0.0217,-0.0217,-0.0217,0,-0.0591,-0.059,-0.0584,-0.057,-0.0548,-0.0523,-0.0505,-0.0477,-0.0432,-0.0408,-0.0423,-0.0341,-0.0304,-0.0225,-0.0217,-0.0213,-0.0196,-0.0198,-0.0131,-0.0121,-0.0112,-0.0075,-0.0062,-0.0217,-0.0217,-0.0217,-0.0217,0,-0.0595,-0.0588,-0.0587,-0.0563,-0.0541,-0.0521,-0.0479,-0.0456,-0.0441,-0.0406,-0.0352,-0.0302,-0.0247,-0.0234,-0.0213,-0.0131,-0.0146,-0.0152,-0.0131,-0.0103,-0.0066,-0.0052,-0.0218,-0.0218,-0.0217,-0.0217,0,0,-0.0634,-0.0599,-0.0598,-0.0582,-0.0533,-0.0518,-0.0472,-0.0419,-0.0394,-0.0349,-0.0303,-0.0227,-0.0208,-0.0173,-0.0141,-0.0071,0.0003,-0.0084,-0.0081,-0.0043,0.0108,0.0067,0.0078,-0.0006,-0.0003,-0.0001,0.0102,0,-0.0635,-0.0616,-0.0591,-0.056,-0.0542,-0.0498,-0.046,-0.041,-0.0373,-0.0326,-0.0251,-0.0209,-0.0183,-0.0167,-0.0089,-0.0035,0.0042,-0.0025,0.0075,0.0079,0.0041,0.0095,0.0008,0.0112,0.0116,0.0118,0.012,0,-0.0643,-0.0627,-0.0605,-0.0558,-0.0549,-0.0529,-0.0472,-0.0433,-0.035,-0.0324,-0.0251,-0.0211,-0.0097,-0.0097,0.0058,0.0001,0.0069,0.012,0.0125,0.0108,0.0065,0.0084,0.0146,0.0144,0.0142,0.014,0.0138,0,-0.0674,-0.0635,-0.0622,-0.0604,-0.055,-0.0537,-0.051,-0.0439,-0.041,-0.0324,-0.0304,-0.0179,-0.0131,-0.002,0.0088,0.0068,0.0242,0.0225,0.0265,0.0261,0.0269,0.026,0.0363,0.0363,0.0362,0.0362,0.0362,0,-0.0675,-0.0667,-0.0645,-0.0635,-0.0631,-0.0579,-0.0562,-0.0516,-0.0449,-0.0408,-0.0315,-0.0257,-0.0111,-0.0003,0.0096,0.0219,0.0252,0.0299,0.03,0.0259,0.0247,0.0278,0.0267,0.0366,0.0365,0.0364,0.0364,0,-0.0701,-0.0682,-0.0678,-0.0648,-0.0648,-0.0651,-0.062,-0.0601,-0.0534,-0.0478,-0.0454,-0.031,-0.0169,-0.0026,0.0158,0.0218,0.0344,0.0386,0.033,0.0321,0.0323,0.0311,0.0443,0.0443,0.0442,0.0442,0.0442,0,-0.0707,-0.0708,-0.0716,-0.0735,-0.0729,-0.0729,-0.0728,-0.0661,-0.0633,-0.0505,-0.0479,-0.0328,-0.0224,0.0008,0.0152,0.0342,0.0367,0.042,0.0396,0.0352,0.0339,0.0327,0.0315,0.0442,0.0442,0.0441,0.0441,0,-0.0719,-0.0739,-0.0742,-0.0791,-0.0811,-0.0817,-0.0805,-0.0786,-0.0689,-0.0632,-0.048,-0.0335,-0.0174,0.0008,0.0155,0.0291,0.0373,0.0418,0.0419,0.0397,0.0351,0.0337,0.0325,0.0441,0.0441,0.0441,0.0441,0,-0.0745,-0.0768,-0.0797,-0.0833,-0.0874,-0.0887,-0.0869,-0.0805,-0.0754,-0.0596,-0.0545,-0.0344,-0.0212,-0.0016,0.012,0.0244,0.0272,0.0295,0.0303,0.0306,0.0226,0.0145,0.0198,0,0,0,0,0,-0.0756,-0.0787,-0.0833,-0.0873,-0.092,-0.0936,-0.0909,-0.0873,-0.0779,-0.0679,-0.0601,-0.0438,-0.0197,-0.0083,0.0036,0.0086,0.0263,0.0223,0.0285,0.0436,0.0437,0.0362,0,0,0,0,0,0,-0.0766,-0.0814,-0.0834,-0.0901,-0.0939,-0.0975,-0.0959,-0.0893,-0.0817,-0.0702,-0.0568,-0.0447,-0.0216,-0.0273,0.0024,0.0066,0.0112,0.0353,0.0354,0.0435,0.0436,0.0437,0.036,0,0,0,0,0]}]]